Regional Weather Roundup
Issued by NWS

Home | Current Version | Previous Version | Graphics & Text | Print | Product List | Glossary On
Versions: 1 2 3 4 5 6 7 8 9 10 11 12 13 14 15 16 17 18 19 20 21 22 23 24 25 26 27 28 29 30 31 32 33 34 35 36 37 38 39 40 41 42 43 44 45 46 47 48 49 50
000
ASUS43 KLOT 230708
RWRIL

ILLINOIS REGIONAL WEATHER ROUNDUP
NATIONAL WEATHER SERVICE CHICAGO/ROMEOVILLE IL
100 AM CST THU FEB 23 2017

NOTE: "FAIR" INDICATES FEW OR NO CLOUDS BELOW 12,000 FEET WITH NO
SIGNIFICANT WEATHER AND/OR OBSTRUCTIONS TO VISIBILITY.

* THESE STATIONS ARE NOT UNDER NWS QUALITY CONTROL. THEY ALSO MAY NOT
  REPORT WEATHER SUCH AS PRECIPITATION OR FOG.

ILZ001-002-007-009-015-016-024-230800-
NORTHWEST ILLINOIS

CITY           SKY/WX    TMP DP  RH WIND       PRES   REMARKS
MOLINE         CLEAR    N/A N/A N/A W7        29.70R
STERLING*      CLEAR     47  43  86 W8        29.69R
SAVANNA*       CLEAR     51  44  79 W6        29.69R
$$

ILZ003-004-008-010-011-017-018-230800-
NORTH CENTRAL ILLINOIS

CITY           SKY/WX    TMP DP  RH WIND       PRES   REMARKS
ROCKFORD       PTCLDY    50  44  80 W7        29.68R
FREEPORT*      CLEAR     48  43  81 SW7       29.69R
ROCHELLE*      CLEAR     48  45  88 W9        29.67R
DE KALB*       PTCLDY    52  47  82 W13G20    29.66R
PERU*          CLEAR     51  48  91 SW8       29.70R
$$

ILZ005-006-012>014-019>023-230800-
NORTHEAST ILLINOIS

CITY           SKY/WX    TMP DP  RH WIND       PRES   REMARKS
CHICAGO-OHARE  PTCLDY    57  50  77 W12       29.63R
CHICAGO-MIDWAY CLEAR     58  51  78 SW16G22   29.65R
AURORA         PTCLDY    53  50  89 SW10      29.66R
LANSING*       CLEAR     55  54  99 SW9       29.67R
JOLIET*        CLEAR     58  54  85 SW15      29.67R
WAUKEGAN       CLEAR     55  48  77 VRB7      29.60R
DUPAGE AIRPORT PTCLDY    53  49  86 W12       29.64R
KANKAKEE*      CLEAR     50  50  98 SW8       29.69R
WHEELING       CLEAR     55  50  83 SW7       29.64R
MORRIS*        CLEAR     54  51  90 SW9       29.68R
ROMEOVILLE*    CLEAR     55  54  96 SW13      29.67R
NORTHERLY ISL    N/A     59  51  75 SW12        N/A
$$

LMZ740>746-230800-
SOUTHERN LAKE MICHIGAN

STATION/POSITION SKY/WX   TEMP    WIND        PRES    VSBY  WAVE
                          AIR SEA DIR/SP/G                  HT/PER
                          (F)     (DEG/KT/KT) (MB)    (MI)  (FT/S)
HARRISON CRIB              60     230/ 17/ 22   N/A
BURNHAM HARBOR             58     210/  9/ 13   N/A
CALUMET HARBOR             57     210/  7/ 13 1003.7R
BURNS HARBOR               58     230/ 17/ 22 1004.4R
MICHIGAN CITY              58     190/ 19/ 28   N/A
$$

ILZ025>027-034>036-040-047-049-050-058-095>099-230800-
WEST-CENTRAL ILLINOIS

CITY           SKY/WX    TMP DP  RH WIND       PRES   REMARKS
QUINCY         FOG       50  50 100 W3        29.72R VSB 1/2
GALESBURG*     CLEAR     48  46  93 CALM      29.71R
MACOMB*        CLEAR     48  48  98 W6        29.73S
JACKSONVILLE*  CLEAR     52  51  97 W5        29.72R
PITTSFIELD*    CLEAR     53  52  97 S3        29.73S
$$

ILZ028>032-037-038-041>044-048-051>054-059>061-230800-
CENTRAL ILLINOIS

CITY           SKY/WX    TMP DP  RH WIND       PRES   REMARKS
PONTIAC        CLEAR     56  55  97 W14       29.70S
BLOOMINGTON    CLEAR     54  53  97 W10       29.73R FOG
DECATUR        PTCLDY    57  53  86 SW13      29.72R
PEORIA         FOG       49  49 100 CALM      29.71S VSB<1/4
LACON*         CLEAR     53  51  95 SW6       29.70R
LINCOLN*       CLEAR     53  53 100 CALM      29.72R FOG
SPRINGFIELD    CLEAR     54  51  90 SW6       29.71S
TAYLORVILLE    PTCLDY    56  53  91 S8        29.72S
$$

ILZ033-039-045-046-055>057-062-063-230800-
EAST-CENTRAL ILLINOIS

CITY           SKY/WX    TMP DP  RH WIND       PRES   REMARKS
CHAMPAIGN      CLEAR     55  51  86 S13       29.72R
RANTOUL*       CLEAR     56  54  90 SW9       29.71R
MATTOON        CLOUDY    57  54  89 S10       29.73S
PARIS*         CLEAR     56  54  92 S10       29.75S
$$

ILZ079-100>102-230800-
SOUTHWEST ILLINOIS

CITY           SKY/WX    TMP DP  RH WIND       PRES   REMARKS
ALTON          PTCLDY    54  51  89 S3        29.73F
BELLEVILLE     PTCLDY    54  54 100 CALM      29.73S
CAHOKIA*       PTCLDY    59  52  77 S3        29.73S
SPARTA*        CLOUDY    57  54  88 CALM      29.76S
$$

ILZ064>066-069>071-074>076-080>082-084>086-088>090-092>094-230800-
SOUTH-CENTRAL ILLINOIS

CITY           SKY/WX    TMP DP  RH WIND       PRES   REMARKS
CARBONDALE     MOCLDY    59  57  93 S8        29.76F
CAIRO*         PTCLDY    59  57  91 S7        29.78F
EFFINGHAM*     MOCLDY    57  55  95 S3        29.77R
MARION         MOCLDY    59  57  94 S6        29.78S
MT. VERNON     CLOUDY    57  55  93 SW8       29.76R
CENTRALIA*     CLOUDY    57  55  94 SW3       29.75S
SALEM*         CLOUDY    60  55  85 SW7       29.76R
METROPOLIS*    CLOUDY    59  56  89 CALM      29.80S
$$

ILZ067-068-072-073-078-083-087-091-230800-
SOUTHEAST ILLINOIS

CITY           SKY/WX    TMP DP  RH WIND       PRES   REMARKS
LAWRENCEVILLE  CLOUDY    50  50 100 SW3       29.78R
FLORA*         PTCLDY    58  55  91 SW5       29.77R
FAIRFIELD*     CLOUDY    58  56  93 S6        29.76R
HARRISBURG*    CLOUDY    58  55  92 S7        29.79S
ROBINSON*      PTCLDY    48  47  97 CALM      29.78R
CARMI*         CLOUDY    55  54  94 S7        29.78R
$$

ABBREVIATIONS USED IN REMARKS
   TC - TEMPERATURE IN CELSIUS
  WCI - WIND CHILL INDEX
   HX - HEAT INDEX
  VSB - VISIBILITY
$$




USA.gov is the U.S. government's official web portal to all federal, state and local government web resources and services.